Time,TemperatureF,DewpointF,PressureIn,WindDirection,WindDirectionDegrees,WindSpeedMPH,WindSpeedGustMPH,Humidity,HourlyPrecipIn,Conditions,Clouds,dailyrainin,SoftwareType,DateUTC
2014-04-25 00:00:00,49.5,18.6,29.79,WNW,292,3.7,3.7,29,0.00,,,0.00,VISReader,2014-04-25 04:00:00,
2014-04-25 00:01:00,49.5,18.6,29.79,NNW,337,5.8,5.8,29,0.00,,,0.00,VISReader,2014-04-25 04:01:00,
2014-04-25 00:03:00,49.3,18.4,29.79,NNW,337,6.8,8.9,29,0.00,,,0.00,VISReader,2014-04-25 04:03:00,
2014-04-25 00:06:00,49.3,18.4,29.79,NNW,337,8.9,8.9,29,0.00,,,0.00,VISReader,2014-04-25 04:06:00,
2014-04-25 00:08:00,49.5,18.6,29.79,WNW,292,4.2,5.3,29,0.00,,,0.00,VISReader,2014-04-25 04:08:00,
2014-04-25 00:09:00,49.5,18.6,29.79,WNW,292,6.3,6.8,29,0.00,,,0.00,VISReader,2014-04-25 04:09:00,
2014-04-25 00:10:00,49.5,18.6,29.79,NNW,337,5.3,6.8,29,0.00,,,0.00,VISReader,2014-04-25 04:10:00,
2014-04-25 00:11:00,49.5,18.6,29.79,WNW,292,2.2,3.7,29,0.00,,,0.00,VISReader,2014-04-25 04:11:00,
2014-04-25 00:13:00,49.3,18.4,29.79,NNW,337,3.7,6.3,29,0.00,,,0.00,VISReader,2014-04-25 04:13:00,
2014-04-25 00:14:00,49.3,19.2,29.79,NNW,337,3.2,3.2,30,0.00,,,0.00,VISReader,2014-04-25 04:14:00,
2014-04-25 00:15:00,49.3,19.2,29.79,NNE,22,5.8,5.8,30,0.00,,,0.00,VISReader,2014-04-25 04:15:00,
2014-04-25 00:18:00,49.3,19.2,29.79,North,360,8.3,8.3,30,0.00,,,0.00,VISReader,2014-04-25 04:18:00,
2014-04-25 00:19:00,49.3,19.2,29.79,NNE,22,6.8,6.8,30,0.00,,,0.00,VISReader,2014-04-25 04:19:00,
2014-04-25 00:21:00,49.5,19.4,29.79,NNW,337,6.8,8.9,30,0.00,,,0.00,VISReader,2014-04-25 04:21:00,
2014-04-25 00:22:00,49.5,19.4,29.79,NNE,22,7.3,8.9,30,0.00,,,0.00,VISReader,2014-04-25 04:22:00,
2014-04-25 00:23:00,49.3,19.2,29.79,North,360,8.3,8.3,30,0.00,,,0.00,VISReader,2014-04-25 04:23:00,
2014-04-25 00:24:00,49.3,19.2,29.79,NW,315,7.3,8.3,30,0.00,,,0.00,VISReader,2014-04-25 04:24:00,
2014-04-25 00:26:00,49.3,19.2,29.79,NE,45,7.8,7.8,30,0.00,,,0.00,VISReader,2014-04-25 04:26:00,
2014-04-25 00:27:00,49.3,19.2,29.79,NW,315,6.3,7.8,30,0.00,,,0.00,VISReader,2014-04-25 04:27:00,
2014-04-25 00:29:00,49.3,19.2,29.79,NNW,337,4.7,7.8,30,0.00,,,0.00,VISReader,2014-04-25 04:29:00,
2014-04-25 00:30:00,49.3,19.2,29.79,North,360,5.8,7.8,30,0.00,,,0.00,VISReader,2014-04-25 04:30:00,
2014-04-25 00:31:00,49.3,19.2,29.79,NNW,337,6.3,6.3,30,0.00,,,0.00,VISReader,2014-04-25 04:31:00,
2014-04-25 00:32:00,49.1,19.0,29.79,NNW,337,3.7,6.3,30,0.00,,,0.00,VISReader,2014-04-25 04:32:00,
2014-04-25 00:34:00,49.1,19.8,29.79,NE,45,2.7,5.8,31,0.00,,,0.00,VISReader,2014-04-25 04:34:00,
2014-04-25 00:35:00,49.1,19.8,29.79,NE,45,3.7,6.3,31,0.00,,,0.00,VISReader,2014-04-25 04:35:00,
2014-04-25 00:36:00,48.9,19.6,29.79,East,90,8.3,8.3,31,0.00,,,0.00,VISReader,2014-04-25 04:36:00,
2014-04-25 00:38:00,48.9,19.6,29.79,NE,45,3.2,4.7,31,0.00,,,0.00,VISReader,2014-04-25 04:38:00,
2014-04-25 00:40:00,48.7,20.2,29.79,North,360,6.3,6.3,32,0.00,,,0.00,VISReader,2014-04-25 04:40:00,
2014-04-25 00:41:00,48.9,20.4,29.79,NNW,337,4.7,8.3,32,0.00,,,0.00,VISReader,2014-04-25 04:41:00,
2014-04-25 00:42:00,48.9,20.4,29.79,NNE,22,4.7,8.3,32,0.00,,,0.00,VISReader,2014-04-25 04:42:00,
2014-04-25 00:44:00,48.9,20.4,29.79,NNE,22,4.7,4.7,32,0.00,,,0.00,VISReader,2014-04-25 04:44:00,
2014-04-25 00:45:00,48.9,20.4,29.79,North,360,7.3,7.3,32,0.00,,,0.00,VISReader,2014-04-25 04:45:00,
2014-04-25 00:47:00,48.9,20.4,29.79,NNE,22,3.7,3.7,32,0.00,,,0.00,VISReader,2014-04-25 04:47:00,
2014-04-25 00:48:00,48.7,20.2,29.79,NNE,22,6.3,6.3,32,0.00,,,0.00,VISReader,2014-04-25 04:48:00,
2014-04-25 00:50:00,48.6,20.1,29.79,North,360,3.7,6.3,32,0.00,,,0.00,VISReader,2014-04-25 04:50:00,
2014-04-25 00:51:00,48.6,20.1,29.78,ENE,67,4.7,6.3,32,0.00,,,0.00,VISReader,2014-04-25 04:51:00,
2014-04-25 00:54:00,48.4,19.9,29.78,NE,45,2.7,5.8,32,0.00,,,0.00,VISReader,2014-04-25 04:54:00,
2014-04-25 00:55:00,48.4,19.9,29.78,NNE,22,3.7,6.3,32,0.00,,,0.00,VISReader,2014-04-25 04:55:00,
2014-04-25 00:59:00,48.0,20.3,29.78,NNE,22,4.2,4.2,33,0.00,,,0.00,VISReader,2014-04-25 04:59:00,
2014-04-25 01:00:00,48.0,20.3,29.78,NNE,22,3.2,4.2,33,0.00,,,0.00,VISReader,2014-04-25 05:00:00,
2014-04-25 01:01:00,48.0,20.3,29.78,North,360,4.2,4.7,33,0.00,,,0.00,VISReader,2014-04-25 05:01:00,
2014-04-25 01:02:00,47.8,20.1,29.78,NE,45,4.2,4.7,33,0.00,,,0.00,VISReader,2014-04-25 05:02:00,
2014-04-25 01:05:00,47.8,20.8,29.79,NNE,22,4.2,5.3,34,0.00,,,0.00,VISReader,2014-04-25 05:05:00,
2014-04-25 01:07:00,47.8,20.8,29.79,East,90,2.7,2.7,34,0.00,,,0.00,VISReader,2014-04-25 05:07:00,
2014-04-25 01:08:00,47.8,20.8,29.79,NE,45,3.7,4.7,34,0.00,,,0.00,VISReader,2014-04-25 05:08:00,
2014-04-25 01:11:00,47.7,20.7,29.79,East,90,3.7,6.3,34,0.00,,,0.00,VISReader,2014-04-25 05:11:00,
2014-04-25 01:12:00,47.7,20.7,29.79,NE,45,3.2,3.7,34,0.00,,,0.00,VISReader,2014-04-25 05:12:00,
2014-04-25 01:13:00,47.7,20.7,29.79,NE,45,3.2,4.2,34,0.00,,,0.00,VISReader,2014-04-25 05:13:00,
2014-04-25 01:16:00,47.3,20.4,29.79,NNE,22,4.7,5.8,34,0.00,,,0.00,VISReader,2014-04-25 05:16:00,
2014-04-25 01:17:00,47.3,20.4,29.79,NNW,337,5.8,5.8,34,0.00,,,0.00,VISReader,2014-04-25 05:17:00,
2014-04-25 01:18:00,47.5,20.5,29.79,NNE,22,3.2,5.8,34,0.00,,,0.00,VISReader,2014-04-25 05:18:00,
2014-04-25 01:19:00,47.5,20.5,29.79,ENE,67,4.7,4.7,34,0.00,,,0.00,VISReader,2014-04-25 05:19:00,
2014-04-25 01:20:00,47.5,20.5,29.79,NE,45,4.2,5.8,34,0.00,,,0.00,VISReader,2014-04-25 05:20:00,
2014-04-25 01:22:00,47.5,20.5,29.79,NNE,22,5.8,5.8,34,0.00,,,0.00,VISReader,2014-04-25 05:22:00,
2014-04-25 01:24:00,47.7,20.7,29.79,NE,45,5.3,9.4,34,0.00,,,0.00,VISReader,2014-04-25 05:24:00,
2014-04-25 01:25:00,47.7,21.4,29.79,East,90,5.3,9.4,35,0.00,,,0.00,VISReader,2014-04-25 05:25:00,
2014-04-25 01:26:00,47.7,21.4,29.79,NE,45,6.3,6.3,35,0.00,,,0.00,VISReader,2014-04-25 05:26:00,
2014-04-25 01:27:00,47.7,21.4,29.78,NNE,22,4.7,6.3,35,0.00,,,0.00,VISReader,2014-04-25 05:27:00,
2014-04-25 01:30:00,47.5,21.2,29.78,NE,45,6.8,6.8,35,0.00,,,0.00,VISReader,2014-04-25 05:30:00,
2014-04-25 01:31:00,47.5,21.2,29.78,NE,45,4.2,6.8,35,0.00,,,0.00,VISReader,2014-04-25 05:31:00,
2014-04-25 01:32:00,47.7,21.4,29.78,NE,45,4.7,7.3,35,0.00,,,0.00,VISReader,2014-04-25 05:32:00,
2014-04-25 01:33:00,47.7,21.4,29.78,NNE,22,3.7,7.3,35,0.00,,,0.00,VISReader,2014-04-25 05:33:00,
2014-04-25 01:36:00,47.5,21.9,29.78,North,360,3.7,7.3,36,0.00,,,0.00,VISReader,2014-04-25 05:36:00,
2014-04-25 01:37:00,47.5,21.9,29.78,ENE,67,6.8,6.8,36,0.00,,,0.00,VISReader,2014-04-25 05:37:00,
2014-04-25 01:38:00,47.5,21.9,29.78,East,90,5.3,7.3,36,0.00,,,0.00,VISReader,2014-04-25 05:38:00,
2014-04-25 01:39:00,47.5,21.9,29.77,East,90,4.7,7.3,36,0.00,,,0.00,VISReader,2014-04-25 05:39:00,
2014-04-25 01:42:00,47.7,22.1,29.77,ENE,67,5.8,8.3,36,0.00,,,0.00,VISReader,2014-04-25 05:42:00,
2014-04-25 01:43:00,47.7,22.1,29.77,NE,45,5.8,8.3,36,0.00,,,0.00,VISReader,2014-04-25 05:43:00,
2014-04-25 01:45:00,47.7,22.1,29.77,East,90,5.3,5.3,36,0.00,,,0.00,VISReader,2014-04-25 05:45:00,
2014-04-25 01:46:00,47.7,22.1,29.77,East,90,4.7,6.3,36,0.00,,,0.00,VISReader,2014-04-25 05:46:00,
2014-04-25 01:48:00,47.7,22.1,29.77,ENE,67,8.3,8.3,36,0.00,,,0.00,VISReader,2014-04-25 05:48:00,
2014-04-25 01:50:00,47.5,22.5,29.77,East,90,5.3,7.3,37,0.00,,,0.00,VISReader,2014-04-25 05:50:00,
2014-04-25 01:51:00,47.3,22.4,29.78,ENE,67,6.3,7.3,37,0.00,,,0.00,VISReader,2014-04-25 05:51:00,
2014-04-25 01:54:00,47.3,22.4,29.78,East,90,3.7,6.8,37,0.00,,,0.00,VISReader,2014-04-25 05:54:00,
2014-04-25 01:56:00,47.3,22.4,29.78,NE,45,8.9,8.9,37,0.00,,,0.00,VISReader,2014-04-25 05:56:00,
2014-04-25 01:57:00,47.5,22.5,29.78,NNE,22,4.7,10.4,37,0.00,,,0.00,VISReader,2014-04-25 05:57:00,
2014-04-25 01:59:00,47.3,22.4,29.78,North,360,4.7,10.4,37,0.00,,,0.00,VISReader,2014-04-25 05:59:00,
2014-04-25 02:01:00,47.3,22.4,29.78,NE,45,4.7,9.9,37,0.00,,,0.00,VISReader,2014-04-25 06:01:00,
2014-04-25 02:02:00,47.3,22.4,29.78,NNE,22,8.9,9.9,37,0.00,,,0.00,VISReader,2014-04-25 06:02:00,
2014-04-25 02:03:00,47.3,22.4,29.77,NE,45,5.3,9.9,37,0.00,,,0.00,VISReader,2014-04-25 06:03:00,
2014-04-25 02:04:00,47.3,22.4,29.77,NE,45,4.2,4.2,37,0.00,,,0.00,VISReader,2014-04-25 06:04:00,
2014-04-25 02:05:00,47.3,22.4,29.77,NE,45,9.9,9.9,37,0.00,,,0.00,VISReader,2014-04-25 06:05:00,
2014-04-25 02:07:00,47.3,22.4,29.77,NE,45,4.7,9.9,37,0.00,,,0.00,VISReader,2014-04-25 06:07:00,
2014-04-25 02:09:00,47.3,22.4,29.77,NNE,22,8.3,8.3,37,0.00,,,0.00,VISReader,2014-04-25 06:09:00,
2014-04-25 02:11:00,47.3,22.4,29.77,NW,315,5.3,5.8,37,0.00,,,0.00,VISReader,2014-04-25 06:11:00,
2014-04-25 02:12:00,47.3,22.4,29.77,NE,45,6.3,9.9,37,0.00,,,0.00,VISReader,2014-04-25 06:12:00,
2014-04-25 02:14:00,47.3,22.4,29.77,NNE,22,5.3,5.3,37,0.00,,,0.00,VISReader,2014-04-25 06:14:00,
2014-04-25 02:15:00,47.3,22.4,29.77,NE,45,5.3,5.8,37,0.00,,,0.00,VISReader,2014-04-25 06:15:00,
2014-04-25 02:16:00,47.1,22.2,29.77,NNE,22,4.2,5.8,37,0.00,,,0.00,VISReader,2014-04-25 06:16:00,
2014-04-25 02:18:00,46.9,22.0,29.77,NNE,22,3.2,4.2,37,0.00,,,0.00,VISReader,2014-04-25 06:18:00,
2014-04-25 02:20:00,46.9,22.6,29.77,NE,45,2.7,7.3,38,0.00,,,0.00,VISReader,2014-04-25 06:20:00,
2014-04-25 02:22:00,46.8,22.5,29.77,SSW,202,1.7,1.7,38,0.00,,,0.00,VISReader,2014-04-25 06:22:00,
2014-04-25 02:24:00,46.6,22.4,29.77,NNE,22,3.7,5.8,38,0.00,,,0.00,VISReader,2014-04-25 06:24:00,
2014-04-25 02:25:00,46.6,22.4,29.77,East,90,3.7,5.8,38,0.00,,,0.00,VISReader,2014-04-25 06:25:00,
2014-04-25 02:27:00,46.4,22.2,29.78,NNE,22,2.7,2.7,38,0.00,,,0.00,VISReader,2014-04-25 06:27:00,
2014-04-25 02:29:00,46.4,22.2,29.78,NNE,22,5.8,6.8,38,0.00,,,0.00,VISReader,2014-04-25 06:29:00,
2014-04-25 02:30:00,46.4,22.2,29.78,NE,45,5.8,5.8,38,0.00,,,0.00,VISReader,2014-04-25 06:30:00,
2014-04-25 02:31:00,46.4,22.2,29.78,NE,45,3.7,5.8,38,0.00,,,0.00,VISReader,2014-04-25 06:31:00,
2014-04-25 02:32:00,46.2,22.6,29.78,NNE,22,3.7,6.3,39,0.00,,,0.00,VISReader,2014-04-25 06:32:00,
2014-04-25 02:34:00,46.2,22.6,29.78,ENE,67,4.2,4.7,39,0.00,,,0.00,VISReader,2014-04-25 06:34:00,
2014-04-25 02:35:00,46.2,22.6,29.78,NE,45,5.8,6.8,39,0.00,,,0.00,VISReader,2014-04-25 06:35:00,
2014-04-25 02:38:00,46.0,22.4,29.78,NNE,22,2.7,5.3,39,0.00,,,0.00,VISReader,2014-04-25 06:38:00,
2014-04-25 02:39:00,46.0,22.4,29.77,NE,45,2.7,5.3,39,0.00,,,0.00,VISReader,2014-04-25 06:39:00,
2014-04-25 02:40:00,46.2,22.6,29.77,NNW,337,5.3,7.3,39,0.00,,,0.00,VISReader,2014-04-25 06:40:00,
2014-04-25 02:42:00,46.2,22.6,29.77,NNE,22,4.2,4.2,39,0.00,,,0.00,VISReader,2014-04-25 06:42:00,
2014-04-25 02:43:00,46.0,22.4,29.77,NNE,22,3.7,5.3,39,0.00,,,0.00,VISReader,2014-04-25 06:43:00,
2014-04-25 02:44:00,46.0,22.4,29.77,NE,45,5.3,6.8,39,0.00,,,0.00,VISReader,2014-04-25 06:44:00,
2014-04-25 02:46:00,46.0,22.4,29.77,ENE,67,3.7,6.3,39,0.00,,,0.00,VISReader,2014-04-25 06:46:00,
2014-04-25 02:49:00,45.9,22.4,29.77,ENE,67,3.7,5.3,39,0.00,,,0.00,VISReader,2014-04-25 06:49:00,
2014-04-25 02:51:00,45.7,22.8,29.77,East,90,4.2,4.2,40,0.00,,,0.00,VISReader,2014-04-25 06:51:00,
2014-04-25 02:52:00,45.7,22.8,29.77,East,90,2.7,4.2,40,0.00,,,0.00,VISReader,2014-04-25 06:52:00,
2014-04-25 02:54:00,45.5,22.6,29.77,West,270,0.0,4.2,40,0.00,,,0.00,VISReader,2014-04-25 06:54:00,
2014-04-25 02:57:00,45.3,22.4,29.77,NNE,22,2.7,3.7,40,0.00,,,0.00,VISReader,2014-04-25 06:57:00,
2014-04-25 02:58:00,45.3,22.4,29.77,North,360,3.2,3.7,40,0.00,,,0.00,VISReader,2014-04-25 06:58:00,
2014-04-25 02:59:00,45.1,22.2,29.77,NNE,22,4.2,4.2,40,0.00,,,0.00,VISReader,2014-04-25 06:59:00,
2014-04-25 03:00:00,45.1,22.2,29.77,NNE,22,4.2,4.2,40,0.00,,,0.00,VISReader,2014-04-25 07:00:00,
2014-04-25 03:03:00,45.1,22.2,29.76,NNE,22,2.7,2.7,40,0.00,,,0.00,VISReader,2014-04-25 07:03:00,
2014-04-25 03:04:00,45.0,22.1,29.76,NNE,22,3.2,3.2,40,0.00,,,0.00,VISReader,2014-04-25 07:04:00,
2014-04-25 03:05:00,45.0,22.1,29.76,NNE,22,4.2,4.2,40,0.00,,,0.00,VISReader,2014-04-25 07:05:00,
2014-04-25 03:08:00,44.8,22.6,29.76,NE,45,2.2,2.7,41,0.00,,,0.00,VISReader,2014-04-25 07:08:00,
2014-04-25 03:09:00,44.6,22.9,29.76,SSW,202,0.0,2.7,42,0.00,,,0.00,VISReader,2014-04-25 07:09:00,
2014-04-25 03:11:00,44.4,22.8,29.76,NW,315,0.0,2.7,42,0.00,,,0.00,VISReader,2014-04-25 07:11:00,
2014-04-25 03:12:00,44.4,22.8,29.76,WSW,247,0.0,1.7,42,0.00,,,0.00,VISReader,2014-04-25 07:12:00,
2014-04-25 03:15:00,44.1,23.1,29.76,WSW,247,0.0,0.0,43,0.00,,,0.00,VISReader,2014-04-25 07:15:00,
2014-04-25 03:16:00,43.9,22.9,29.76,WSW,247,1.7,1.7,43,0.00,,,0.00,VISReader,2014-04-25 07:16:00,
2014-04-25 03:17:00,43.7,22.7,29.76,West,270,1.7,2.7,43,0.00,,,0.00,VISReader,2014-04-25 07:17:00,
2014-04-25 03:19:00,43.7,22.7,29.76,NW,315,2.2,2.2,43,0.00,,,0.00,VISReader,2014-04-25 07:19:00,
2014-04-25 03:20:00,43.5,22.5,29.76,ENE,67,1.7,2.2,43,0.00,,,0.00,VISReader,2014-04-25 07:20:00,
2014-04-25 03:21:00,43.5,22.5,29.76,NNE,22,1.7,2.2,43,0.00,,,0.00,VISReader,2014-04-25 07:21:00,
2014-04-25 03:23:00,43.3,22.3,29.76,East,90,0.0,1.1,43,0.00,,,0.00,VISReader,2014-04-25 07:23:00,
2014-04-25 03:24:00,43.3,22.9,29.76,NE,45,0.0,1.1,44,0.00,,,0.00,VISReader,2014-04-25 07:24:00,
2014-04-25 03:25:00,43.3,22.9,29.76,NE,45,0.0,1.1,44,0.00,,,0.00,VISReader,2014-04-25 07:25:00,
2014-04-25 03:27:00,43.2,22.8,29.77,ENE,67,0.0,0.0,44,0.00,,,0.00,VISReader,2014-04-25 07:27:00,
2014-04-25 03:29:00,43.0,22.6,29.77,NNE,22,1.7,2.7,44,0.00,,,0.00,VISReader,2014-04-25 07:29:00,
2014-04-25 03:30:00,42.8,22.4,29.77,NNE,22,1.1,2.7,44,0.00,,,0.00,VISReader,2014-04-25 07:30:00,
2014-04-25 03:31:00,42.6,22.8,29.77,North,360,1.1,2.7,45,0.00,,,0.00,VISReader,2014-04-25 07:31:00,
2014-04-25 03:32:00,42.6,22.8,29.77,NE,45,2.2,2.7,45,0.00,,,0.00,VISReader,2014-04-25 07:32:00,
2014-04-25 03:35:00,42.6,22.8,29.77,NE,45,2.2,2.2,45,0.00,,,0.00,VISReader,2014-04-25 07:35:00,
2014-04-25 03:36:00,42.6,23.3,29.77,NE,45,2.2,2.2,46,0.00,,,0.00,VISReader,2014-04-25 07:36:00,
2014-04-25 03:37:00,42.4,23.1,29.77,East,90,1.7,2.2,46,0.00,,,0.00,VISReader,2014-04-25 07:37:00,
2014-04-25 03:38:00,42.4,23.1,29.77,ESE,112,0.0,2.2,46,0.00,,,0.00,VISReader,2014-04-25 07:38:00,
2014-04-25 03:42:00,42.1,22.8,29.76,West,270,1.7,2.2,46,0.00,,,0.00,VISReader,2014-04-25 07:42:00,
2014-04-25 03:43:00,41.9,23.2,29.76,West,270,2.2,2.2,47,0.00,,,0.00,VISReader,2014-04-25 07:43:00,
2014-04-25 03:47:00,42.1,22.8,29.76,NW,315,2.2,2.7,46,0.00,,,0.00,VISReader,2014-04-25 07:47:00,
2014-04-25 03:48:00,42.1,22.8,29.76,NW,315,2.2,2.7,46,0.00,,,0.00,VISReader,2014-04-25 07:48:00,
2014-04-25 03:49:00,42.1,22.8,29.76,NW,315,1.7,2.2,46,0.00,,,0.00,VISReader,2014-04-25 07:49:00,
2014-04-25 03:50:00,42.1,22.8,29.76,NNW,337,2.2,2.2,46,0.00,,,0.00,VISReader,2014-04-25 07:50:00,
2014-04-25 03:53:00,42.1,23.3,29.77,NW,315,3.2,3.2,47,0.00,,,0.00,VISReader,2014-04-25 07:53:00,
2014-04-25 03:54:00,42.1,23.3,29.77,NW,315,2.7,3.2,47,0.00,,,0.00,VISReader,2014-04-25 07:54:00,
2014-04-25 03:56:00,42.3,23.5,29.77,WNW,292,3.2,3.2,47,0.00,,,0.00,VISReader,2014-04-25 07:56:00,
2014-04-25 03:57:00,42.4,23.1,29.77,WNW,292,3.2,3.2,46,0.00,,,0.00,VISReader,2014-04-25 07:57:00,
2014-04-25 03:58:00,42.4,23.1,29.77,West,270,2.2,3.2,46,0.00,,,0.00,VISReader,2014-04-25 07:58:00,
2014-04-25 03:59:00,42.4,23.1,29.77,West,270,1.7,3.2,46,0.00,,,0.00,VISReader,2014-04-25 07:59:00,
2014-04-25 04:01:00,42.3,23.0,29.77,NE,45,1.7,1.7,46,0.00,,,0.00,VISReader,2014-04-25 08:01:00,
2014-04-25 04:02:00,42.3,23.0,29.77,ESE,112,1.7,1.7,46,0.00,,,0.00,VISReader,2014-04-25 08:02:00,
2014-04-25 04:03:00,42.3,23.0,29.77,SE,135,1.7,1.7,46,0.00,,,0.00,VISReader,2014-04-25 08:03:00,
2014-04-25 04:04:00,42.3,23.5,29.77,ESE,112,2.2,2.2,47,0.00,,,0.00,VISReader,2014-04-25 08:04:00,
2014-04-25 04:05:00,42.3,23.5,29.77,ESE,112,2.2,2.2,47,0.00,,,0.00,VISReader,2014-04-25 08:05:00,
2014-04-25 04:06:00,42.1,23.3,29.77,SE,135,1.7,2.2,47,0.00,,,0.00,VISReader,2014-04-25 08:06:00,
2014-04-25 04:09:00,41.7,23.0,29.77,NNE,22,0.0,0.0,47,0.00,,,0.00,VISReader,2014-04-25 08:09:00,
2014-04-25 04:10:00,41.7,23.0,29.77,NW,315,0.0,0.0,47,0.00,,,0.00,VISReader,2014-04-25 08:10:00,
2014-04-25 04:13:00,41.2,23.5,29.77,NW,315,0.0,0.0,49,0.00,,,0.00,VISReader,2014-04-25 08:13:00,
2014-04-25 04:14:00,41.2,23.5,29.77,NW,315,0.0,0.0,49,0.00,,,0.00,VISReader,2014-04-25 08:14:00,
2014-04-25 04:15:00,41.0,23.3,29.77,West,270,0.0,0.0,49,0.00,,,0.00,VISReader,2014-04-25 08:15:00,
2014-04-25 04:16:00,41.0,23.3,29.77,WSW,247,0.0,0.0,49,0.00,,,0.00,VISReader,2014-04-25 08:16:00,
2014-04-25 04:17:00,41.0,23.3,29.77,WSW,247,0.0,0.0,49,0.00,,,0.00,VISReader,2014-04-25 08:17:00,
2014-04-25 04:19:00,40.6,23.4,29.77,SE,135,1.1,1.1,50,0.00,,,0.00,VISReader,2014-04-25 08:19:00,
2014-04-25 04:21:00,40.5,23.8,29.77,SSE,157,1.7,2.2,51,0.00,,,0.00,VISReader,2014-04-25 08:21:00,
2014-04-25 04:22:00,40.5,23.8,29.77,SSE,157,0.0,0.0,51,0.00,,,0.00,VISReader,2014-04-25 08:22:00,
2014-04-25 04:25:00,40.1,23.4,29.77,NW,315,0.0,0.0,51,0.00,,,0.00,VISReader,2014-04-25 08:25:00,
2014-04-25 04:26:00,40.1,23.9,29.77,NW,315,2.7,2.7,52,0.00,,,0.00,VISReader,2014-04-25 08:26:00,
2014-04-25 04:27:00,40.1,23.9,29.77,WNW,292,2.7,2.7,52,0.00,,,0.00,VISReader,2014-04-25 08:27:00,
2014-04-25 04:29:00,40.5,23.8,29.77,WNW,292,2.7,2.7,51,0.00,,,0.00,VISReader,2014-04-25 08:29:00,
2014-04-25 04:30:00,40.6,23.4,29.77,West,270,1.1,2.2,50,0.00,,,0.00,VISReader,2014-04-25 08:30:00,
2014-04-25 04:31:00,40.6,23.4,29.77,WNW,292,1.1,2.2,50,0.00,,,0.00,VISReader,2014-04-25 08:31:00,
2014-04-25 04:32:00,40.6,23.4,29.77,SW,225,0.0,2.2,50,0.00,,,0.00,VISReader,2014-04-25 08:32:00,
2014-04-25 04:34:00,40.3,23.2,29.77,ESE,112,0.0,0.0,50,0.00,,,0.00,VISReader,2014-04-25 08:34:00,
2014-04-25 04:36:00,39.9,23.3,29.77,SSE,157,0.0,0.0,51,0.00,,,0.00,VISReader,2014-04-25 08:36:00,
2014-04-25 04:37:00,39.9,23.7,29.77,SSE,157,0.0,0.0,52,0.00,,,0.00,VISReader,2014-04-25 08:37:00,
2014-04-25 04:38:00,39.7,23.5,29.77,ESE,112,0.0,0.0,52,0.00,,,0.00,VISReader,2014-04-25 08:38:00,
2014-04-25 04:39:00,39.7,24.0,29.77,ENE,67,0.0,0.0,53,0.00,,,0.00,VISReader,2014-04-25 08:39:00,
2014-04-25 04:40:00,39.7,23.5,29.77,NNE,22,0.0,0.0,52,0.00,,,0.00,VISReader,2014-04-25 08:40:00,
2014-04-25 04:41:00,39.6,23.9,29.77,WNW,292,0.0,0.0,53,0.00,,,0.00,VISReader,2014-04-25 08:41:00,
2014-04-25 04:43:00,39.6,24.3,29.77,WSW,247,0.0,0.0,54,0.00,,,0.00,VISReader,2014-04-25 08:43:00,
2014-04-25 04:44:00,39.4,24.6,29.77,WSW,247,2.2,2.2,55,0.00,,,0.00,VISReader,2014-04-25 08:44:00,
2014-04-25 04:45:00,39.4,24.6,29.77,SSW,202,2.7,2.7,55,0.00,,,0.00,VISReader,2014-04-25 08:45:00,
2014-04-25 04:49:00,39.2,24.8,29.77,South,180,2.2,3.2,56,0.00,,,0.00,VISReader,2014-04-25 08:49:00,
2014-04-25 04:50:00,39.2,24.8,29.77,South,180,1.7,2.2,56,0.00,,,0.00,VISReader,2014-04-25 08:50:00,
2014-04-25 04:51:00,39.2,24.4,29.78,SSW,202,1.1,2.2,55,0.00,,,0.00,VISReader,2014-04-25 08:51:00,
2014-04-25 04:52:00,39.2,24.0,29.78,SW,225,0.0,2.2,54,0.00,,,0.00,VISReader,2014-04-25 08:52:00,
2014-04-25 04:54:00,39.0,23.8,29.78,SSW,202,0.0,0.0,54,0.00,,,0.00,VISReader,2014-04-25 08:54:00,
2014-04-25 04:55:00,38.8,24.0,29.78,WSW,247,0.0,0.0,55,0.00,,,0.00,VISReader,2014-04-25 08:55:00,
2014-04-25 04:57:00,38.7,24.4,29.78,WSW,247,0.0,0.0,56,0.00,,,0.00,VISReader,2014-04-25 08:57:00,
2014-04-25 04:58:00,38.7,24.8,29.78,WSW,247,0.0,0.0,57,0.00,,,0.00,VISReader,2014-04-25 08:58:00,
2014-04-25 05:00:00,38.5,25.0,29.78,SSW,202,0.0,0.0,58,0.00,,,0.00,VISReader,2014-04-25 09:00:00,
2014-04-25 05:01:00,38.5,25.0,29.78,SSE,157,0.0,0.0,58,0.00,,,0.00,VISReader,2014-04-25 09:01:00,
2014-04-25 05:03:00,38.3,24.8,29.78,ESE,112,1.7,1.7,58,0.00,,,0.00,VISReader,2014-04-25 09:03:00,
2014-04-25 05:04:00,38.3,24.8,29.78,ESE,112,2.7,2.7,58,0.00,,,0.00,VISReader,2014-04-25 09:04:00,
2014-04-25 05:08:00,38.3,25.6,29.78,South,180,1.1,1.1,60,0.00,,,0.00,VISReader,2014-04-25 09:08:00,
2014-04-25 05:09:00,38.1,25.5,29.78,South,180,1.1,1.7,60,0.00,,,0.00,VISReader,2014-04-25 09:09:00,
2014-04-25 05:10:00,38.1,25.5,29.78,South,180,1.1,1.7,60,0.00,,,0.00,VISReader,2014-04-25 09:10:00,
2014-04-25 05:11:00,38.1,25.5,29.78,SSE,157,0.0,1.7,60,0.00,,,0.00,VISReader,2014-04-25 09:11:00,
2014-04-25 05:15:00,37.8,26.0,29.78,SSW,202,0.0,0.0,62,0.00,,,0.00,VISReader,2014-04-25 09:15:00,
2014-04-25 05:16:00,37.6,25.8,29.78,SSW,202,0.0,0.0,62,0.00,,,0.00,VISReader,2014-04-25 09:16:00,